Station 44027 (LLNR 4) - Jonesport, ME - 20 NM SE of Jonesport, ME Image indicating link to RSS feed of recent meteorological observations for station 44027


Conditions at 44027 as of
(11:00 pm ADT on 07/13/2024)
0200 GMT on 07/14/2024:
     

Click on the graph icon in the table below to see a time series plot of the last five days of that observation.

5-day plot - Wind Direction Wind Direction (WDIR):SSW ( 210 deg true )
5-day plot - Wind Speed Wind Speed (WSPD): 9.7 kts
5-day plot - Wind Gust Wind Gust (GST): 11.7 kts
5-day plot - Atmospheric Pressure Atmospheric Pressure (PRES):29.99 in
5-day plot - Pressure Tendency Pressure Tendency (PTDY):-0.01 in ( Falling )
5-day plot - Water Temperature Water Temperature (WTMP): 54.3 °F
5-day plot - Wind Speed at 10 Meters Wind Speed at 10 meters (WSPD10M): 9.7 kts
5-day plot - Wind Speed at 20 Meters Wind Speed at 20 meters (WSPD20M): 11.7 kts
5-day plot -  Wind Speed, Wind Gust and Atmospheric Pressure Combined plot of Wind Speed, Gust, and Air Pressure
Supplemental Measurements
Highest 1-minute Wind Speed
Time (ADT)5-day plot - 1-Minute Wind Speed WSPD 5-day plot - 1-Minute Wind Direction WDIR
10:57 pm 9.7 kts-
Previous observations
TIME
(ADT)
5-day plot - Wind Direction
WDIR
 
5-day plot - Wind Speed
WSPD
kts
5-day plot - Wind Gust
GST
kts
5-day plot - Wave Height
WVHT
ft
5-day plot - Dominant Wave Period
DPD
sec
5-day plot - Average Wave Period
APD
sec
5-day plot - Mean Wave Direction
MWD
 
5-day plot - Atmospheric Pressure
PRES
in
5-day plot - Pressure Tendency
PTDY
in
5-day plot - Air Temperature
ATMP
°F
5-day plot - Water Temperature
WTMP
°F
5-day plot - Dew Point
DEWP
°F
5-day plot - Salinity
SAL
psu
5-day plot - Visibility
VIS
nmi
5-day plot - Tide (above MLLW)
TIDE
ft
2024-07-13 10:50 pmSSW 9.7 11.7 3.3 65.2 S29.98-- 54.0----
2024-07-13 10:40 pmSSW 9.7 11.7----29.99-- 53.6----
2024-07-13 10:30 pm S 9.7 11.7----29.99-- 53.2----
2024-07-13 10:20 pmSSW 9.7 11.7 3.3 75.3 S30.00-- 52.2----
2024-07-13 10:10 pmSSW 9.7 9.7 3.3-5.3 S30.00-- 51.8----
2024-07-13 10:00 pm SW 7.8 9.7----30.00+0.01- 51.6----
2024-07-13 09:50 pmSSW 7.8 9.7 3.3 65.1 S30.00-- 51.6----
2024-07-13 09:40 pm SW 9.7 11.7----30.00-- 51.8----
2024-07-13 09:30 pm SW 9.7 9.7----30.00-- 52.7----
2024-07-13 09:20 pmWSW 9.7 9.7 3.6 85.3 S30.00-- 52.7----
2024-07-13 09:10 pm W 7.8 9.7----30.00-- 52.9----
2024-07-13 09:00 pm W 7.8 9.7----30.00+0.00- 52.9----
2024-07-13 08:50 pm W 7.8 9.7 3.3 75.1 S30.00-- 53.2----
2024-07-13 08:40 pm W 7.8 9.7----30.00-- 53.4----
2024-07-13 08:30 pm W 9.7 13.6----30.01-- 53.4----
2024-07-13 08:10 pmWSW 13.6 15.5 3.3-4.8SSE30.01-- 53.6----
2024-07-13 08:00 pmWSW 13.6 15.5----30.00-0.01- 53.6----
2024-07-13 07:50 pm SW 13.6 15.5 3.6 65.0 S30.00-- 53.6----
2024-07-13 07:40 pm SW 13.6 15.5----30.00-- 53.6----
2024-07-13 07:30 pm SW 13.6 15.5----30.00-- 53.6----
2024-07-13 07:20 pm SW 11.7 13.6 3.3 84.9 S29.99-- 53.6----
2024-07-13 07:10 pm SW 11.7 13.6 3.3-4.9 S29.99-- 53.6----
2024-07-13 07:00 pm SW 9.7 13.6----29.99-0.05- 53.8----
2024-07-13 06:50 pm SW 9.7 11.7 3.3 85.1 S29.98-- 53.6----
2024-07-13 06:40 pm SW 11.7 13.6 3.3-5.1 S29.99-- 53.6----
2024-07-13 06:30 pm SW 11.7 13.6----29.99-- 53.6----
2024-07-13 06:20 pm SW 13.6 13.6 3.3 85.1 S30.00-- 52.9----
2024-07-13 06:10 pm SW 11.7 13.6 3.3-5.1 S30.00-- 53.1----
2024-07-13 06:00 pm SW 11.7 13.6----30.00-0.06- 53.1----
2024-07-13 05:50 pmSSW 11.7 13.6 3.3 64.9 S29.99-- 52.9----
2024-07-13 05:40 pmSSW 11.7 13.6----30.00-- 52.5----
2024-07-13 05:30 pmSSW 11.7 13.6----30.01-- 52.2----
2024-07-13 05:20 pmSSW 11.7 13.6 3.3 74.9 S30.01-- 51.6----
2024-07-13 05:10 pm SW 11.7 13.6 3.3-4.9 S30.02-- 51.4----
2024-07-13 05:00 pmSSW 11.7 13.6----30.02-0.06- 51.4----
2024-07-13 04:50 pmSSW 9.7 11.7 3.3 74.8 S30.02-- 51.3----
2024-07-13 04:40 pmSSW 9.7 11.7----30.02-- 51.3----
2024-07-13 04:30 pm SW 9.7 11.7----30.03-- 51.1----
2024-07-13 04:20 pm SW 9.7 11.7 3.6 84.7 S30.03-- 51.1----
2024-07-13 04:10 pm SW 9.7 11.7 3.6-4.7 S30.03-- 51.1----
2024-07-13 04:00 pm SW 9.7 9.7----30.04-0.05- 51.1----
2024-07-13 03:50 pm SW 9.7 11.7 3.6 74.7 S30.04-- 50.9----
2024-07-13 03:40 pmSSW 9.7 11.7----30.04-- 50.9----
2024-07-13 03:30 pmSSW 7.8 9.7----30.04-- 50.9----
2024-07-13 03:20 pmSSW 7.8 9.7 3.6 64.7 S30.04-- 50.9----
2024-07-13 03:10 pmSSW 7.8 9.7 3.6-4.7 S30.05-- 51.1----
2024-07-13 03:00 pm SW 7.8 9.7----30.06-0.02- 51.1----
2024-07-13 02:50 pm SW 9.7 9.7 3.6 64.7SSW30.06-- 51.1----
2024-07-13 02:40 pm SW 9.7 13.6----30.07-- 50.9----
2024-07-13 02:30 pm SW 11.7 13.6----30.07-- 50.9----
2024-07-13 02:20 pm SW 11.7 13.6 3.6 64.8 S30.08-- 50.9----
2024-07-13 02:10 pm SW 11.7 13.6 3.6-4.8 S30.08-- 50.9----
2024-07-13 02:00 pm SW 9.7 11.7----30.08-0.02- 50.9----
2024-07-13 01:50 pmSSW 9.7 11.7 3.6 64.8 S30.09-- 51.1----
2024-07-13 01:40 pm SW 7.8 9.7----30.09-- 51.1----
2024-07-13 01:30 pm SW 7.8 9.7----30.09-- 50.9----
2024-07-13 01:20 pm SW 9.7 11.7 3.6 54.9SSW30.10-- 51.1----
2024-07-13 01:10 pmSSW 11.7 13.6 3.6-4.9SSW30.09-- 50.9----
2024-07-13 01:00 pmSSW 11.7 13.6----30.09-0.02- 51.3----
2024-07-13 12:50 pm S 9.7 11.7 3.9 75.1 S30.09-- 51.3----
2024-07-13 12:40 pm S 7.8 9.7----30.09-- 51.3----
2024-07-13 12:30 pm S 7.8 7.8----30.09-- 51.6----
2024-07-13 12:20 pmSSW 3.9 5.8 3.9 65.3 S30.08-- 51.6----
2024-07-13 12:10 pmWSW 3.9 5.8 3.9-5.3 S30.08-- 51.3----
2024-07-13 12:00 pm SW 3.9 5.8----30.08-0.03- 51.4----
2024-07-13 11:50 am SW 5.8 7.8 3.6 65.4SSW30.09-- 51.6----
2024-07-13 11:40 am SW 7.8 7.8----30.10-- 51.8----
2024-07-13 11:30 am SW 5.8 7.8----30.10-- 51.8----
2024-07-13 11:20 am SW 5.8 7.8 3.9 85.4 S30.10-- 51.8----
2024-07-13 11:10 am SW 3.9 5.8 3.9-5.4 S30.11-- 51.6----
2024-07-13 11:00 am SW 3.9 5.8----30.11-0.01- 51.6----
2024-07-13 10:50 am SW 5.8 5.8 3.9 75.3SSW30.11-- 51.8----
2024-07-13 10:40 am SW 5.8 7.8----30.11-- 51.6----
2024-07-13 10:30 am SW 7.8 9.7----30.11-- 52.0----
2024-07-13 10:20 am SW 7.8 9.7 3.9 85.5 S30.11-- 52.3----
2024-07-13 10:10 am SW 7.8 9.7----30.11-- 52.5----
2024-07-13 10:00 am SW 9.7 11.7----30.11+0.01- 53.1----
2024-07-13 09:50 am SW 11.7 15.5 3.9 75.4 S30.11-- 53.1----
2024-07-13 09:40 am SW 9.7 13.6 3.9-5.4 S30.11-- 52.9----
2024-07-13 09:30 am SW 9.7 11.7----30.11-- 52.9----
2024-07-13 09:20 amWSW 7.8 9.7 3.9 75.6 S30.11-- 52.7----
2024-07-13 09:10 am SW 7.8 9.7 3.9-5.6 S30.11-- 52.7----
2024-07-13 09:00 am SW 7.8 9.7----30.11+0.03- 52.7----
2024-07-13 08:50 am SW 7.8 9.7 3.9 85.4 S30.11-- 53.2----
2024-07-13 08:40 am SW 7.8 7.8----30.11-- 53.4----
2024-07-13 08:30 amWSW 5.8 7.8----30.11-- 53.2----
2024-07-13 08:20 amWSW 5.8 7.8 3.9 85.5SSW30.11-- 53.1----
2024-07-13 08:10 amWSW 7.8 9.7 3.9-5.5SSW30.11-- 52.9----
2024-07-13 08:00 amWSW 7.8 9.7----30.12+0.03- 52.7----
2024-07-13 07:50 amWSW 9.7 11.7 3.9 85.3 S30.11-- 52.7----
2024-07-13 07:40 amWSW 9.7 11.7----30.11-- 52.9----
2024-07-13 07:30 amWSW 11.7 13.6----30.11-- 52.9----
2024-07-13 07:20 am SW 11.7 13.6 4.3 75.1 S30.10-- 52.9----
2024-07-13 07:10 am SW 11.7 13.6 4.3-5.1 S30.10-- 53.1----
2024-07-13 07:00 am SW 11.7 13.6----30.10+0.01- 53.1----
2024-07-13 06:50 am SW 9.7 11.7 4.3 75.3 S30.10-- 53.1----
2024-07-13 06:40 am SW 11.7 13.6----30.10-- 53.1----
2024-07-13 06:30 am SW 11.7 11.7----30.10-- 53.1----
2024-07-13 06:20 am SW 9.7 11.7 4.3 85.3 S30.10-- 53.1----
2024-07-13 06:10 am SW 9.7 11.7 4.3-5.3 S30.09-- 53.2----
2024-07-13 06:00 am SW 9.7 11.7----30.09-0.02- 53.2----
2024-07-13 05:50 am SW 9.7 11.7 4.3 75.4SSE30.09-- 53.1----
2024-07-13 05:40 am SW 9.7 11.7----30.09-- 53.1----
2024-07-13 05:30 am SW 9.7 11.7----30.09-- 53.4----
2024-07-13 05:20 am SW 9.7 11.7 3.9 75.4 S30.09-- 53.4----
2024-07-13 05:10 am SW 9.7 11.7 3.9-5.4 S30.09-- 53.6----
2024-07-13 05:00 amSSW 9.7 11.7----30.09-0.03- 53.6----
2024-07-13 04:50 amSSW 9.7 11.7 3.9 85.6 S30.09-- 53.4----
2024-07-13 04:40 amSSW 9.7 11.7----30.09-- 53.2----
2024-07-13 04:30 amSSW 9.7 11.7----30.09-- 52.7----
2024-07-13 04:20 amSSW 11.7 13.6 3.9 85.3 S30.09-- 52.9----
2024-07-13 04:10 amSSW 11.7 13.6 3.9-5.3 S30.09-- 53.1----
2024-07-13 04:00 amSSW 13.6 15.5----30.09-0.04- 53.2----
2024-07-13 03:50 amSSW 13.6 15.5 4.3 75.2 S30.09-- 53.2----
2024-07-13 03:40 amSSW 11.7 13.6----30.09-- 53.1----
2024-07-13 03:30 amSSW 11.7 13.6----30.10-- 53.1----
2024-07-13 03:20 amSSW 9.7 11.7 4.3 75.2 S30.10-- 52.9----
2024-07-13 03:10 amSSW 7.8 9.7----30.10-- 52.5----
2024-07-13 03:00 amSSW 7.8 9.7----30.11-0.02- 52.5----
2024-07-13 02:50 amSSW 9.7 9.7 4.3 75.0 S30.11-- 52.5----
2024-07-13 02:40 amSSW 7.8 7.8----30.11-- 52.3----
2024-07-13 02:30 amSSW 5.8 7.8----30.11-- 52.3----
2024-07-13 02:20 am SW 3.9 3.9 4.3 85.0 S30.11-- 52.3----
2024-07-13 02:10 am SW 3.9 5.8 4.3-5.0 S30.12-- 52.3----
2024-07-13 02:00 am SW 3.9 5.8----30.12+0.00- 52.3----
2024-07-13 01:50 amWSW 3.9 5.8 3.9 74.9 S30.12-- 52.2----
2024-07-13 01:40 amWSW 3.9 5.8----30.12-- 52.2----
2024-07-13 01:30 amWSW 5.8 7.8----30.12-- 52.2----
2024-07-13 01:20 am SW 7.8 7.8 4.3 75.2 S30.12-- 52.3----
2024-07-13 01:10 am SW 7.8 7.8 4.3-5.2 S30.12-- 52.3----
2024-07-13 01:00 am SW 7.8 9.7----30.12+0.00- 52.3----
2024-07-13 12:50 am SW 7.8 7.8 3.9 85.2 S30.12-- 52.3----
2024-07-13 12:40 am SW 7.8 7.8----30.12-- 52.3----
2024-07-13 12:30 am SW 7.8 7.8----30.13-- 52.3----
2024-07-13 12:20 am SW 5.8 7.8 3.9 85.3 S30.13-- 52.3----
2024-07-13 12:10 am W 3.9 5.8 3.9-5.3 S30.13-- 52.5----
2024-07-13 12:00 amWSW 3.9 5.8----30.13+0.02- 52.5----
2024-07-12 11:50 pmSSW 7.8 9.7 4.3 85.7 S30.12-- 52.5----
2024-07-12 11:40 pmSSW 9.7 11.7----30.12-- 52.3----
2024-07-12 11:30 pmSSW 9.7 11.7----30.12-- 52.3----
2024-07-12 11:20 pmSSW 9.7 11.7 3.9 85.5 S30.11-- 52.2----
2024-07-12 11:10 pmSSW 7.8 9.7 3.9-5.5 S30.11-- 52.0----
2024-07-12 11:00 pmSSW 5.8 7.8----30.12+0.02- 52.0----
2024-07-12 10:50 pmSSW 7.8 9.7 4.3 95.9 S30.12-- 52.0----

Detailed Wave Summary
for 44027 as of
(10:40 pm ADT on 07/13/2024)
0140 GMT on 07/14/2024:

These wave data are displayed in rounded times.

     

Click on the graph icon in the table below to see a time series plot of the last five days of that observation.

5-day plot - Significant Wave Height Significant Wave Height (WVHT): 3.3 ft
5-day plot - Swell Height Swell Height (SwH): 2.6 ft
5-day plot - Swell Period Swell Period (SwP): 5.9 sec
5-day plot - Swell Direction Swell Direction (SwD): S
5-day plot - Wind Wave Height Wind Wave Height (WWH): 1.6 ft
5-day plot - Wind Wave Period Wind Wave Period (WWP): 4.5 sec
5-day plot - Wind Wave Direction Wind Wave Direction (WWD): S
5-day plot - Wave Steepness Wave Steepness (STEEPNESS): STEEP
5-day plot - Average Wave Period Average Wave Period (APD): 5.2 sec
Previous observations
TIME
(ADT)
5-day plot - Wave Height
WVHT
ft
5-day plot - Swell Height
SwH
ft
5-day plot - Swell Period
SwP
sec
5-day plot - Swell Direction
SwD
 
5-day plot - Wind Wave Height
WWH
ft
5-day plot - Wind Wave Period
WWP
sec
5-day plot - Wind Wave Direction
WWD
 
5-day plot - Wave Steepness
STEEPNESS
 
5-day plot - Average Wave Period
APD
sec
2024-07-13 10:10 pm 3.3 3.0 7.1 S 1.3 4.2 S AVERAGE 5.3
2024-07-13 09:40 pm 3.3 3.0 6.2 S 1.6 4.3 S STEEP 5.1
2024-07-13 09:10 pm 3.6 3.3 8.3 S 1.3 3.8 SSW AVERAGE 5.3
2024-07-13 08:40 pm 3.3 3.0 7.1 S 1.3 4.0 S AVERAGE 5.1
2024-07-13 08:10 pm 3.3 2.0 8.3 S 2.6 5.6 SSE STEEP 4.8
2024-07-13 07:40 pm 3.6 2.3 6.7SSE 2.6 5.9 S STEEP 5.0
2024-07-13 07:10 pm 3.3 2.6 7.7 S 2.0 5.0 S AVERAGE 4.9
2024-07-13 06:40 pm 3.3 3.0 7.7 S 2.0 4.0 S AVERAGE 5.1
2024-07-13 06:10 pm 3.3 2.6 8.3 S 2.3 5.6 S SWELL 5.1
2024-07-13 05:40 pm 3.3 2.6 5.9 S 2.0 4.5 S STEEP 4.9
2024-07-13 05:10 pm 3.3 2.6 7.1 S 2.0 4.0 S AVERAGE 4.9
2024-07-13 04:40 pm 3.3 2.6 7.1 S 2.0 4.8 S AVERAGE 4.8
2024-07-13 04:10 pm 3.6 3.0 7.7 S 2.0 4.0 SSW AVERAGE 4.7
2024-07-13 03:40 pm 3.6 3.0 7.1 S 2.0 4.3 SSW AVERAGE 4.7
2024-07-13 03:10 pm 3.6 3.0 5.6 S 1.6 4.0 SSW STEEP 4.7
2024-07-13 02:40 pm 3.6 2.6 5.6SSW 2.3 4.2 SSW STEEP 4.7
2024-07-13 02:10 pm 3.6 2.6 5.9 S 2.6 5.3 S STEEP 4.8
2024-07-13 01:40 pm 3.6 3.3 5.9 S 1.6 3.8 SSW STEEP 4.8
2024-07-13 01:10 pm 3.6 2.6 7.1 S 2.6 5.3 SSWVERY_STEEP 4.9
2024-07-13 12:40 pm 3.9 3.6 6.7 S 1.3 3.7 S STEEP 5.1
2024-07-13 12:10 pm 3.9 3.6 6.2 S 1.3 4.0 S STEEP 5.3
2024-07-13 11:40 am 3.6 3.6 6.2SSW 1.3 3.8 S STEEP 5.4
2024-07-13 11:10 am 3.9 3.6 7.7 S 1.3 4.0 S AVERAGE 5.4
2024-07-13 10:40 am 3.9 3.6 6.7SSW 1.3 4.0 S STEEP 5.3
2024-07-13 10:10 am 3.9 3.9 7.7 S 1.3 4.0 S AVERAGE 5.5
2024-07-13 09:40 am 3.9 3.6 6.7 S 2.0 4.5 S STEEP 5.4
2024-07-13 09:10 am 3.9 3.9 7.1 S 1.3 3.8 S AVERAGE 5.6
2024-07-13 08:40 am 3.9 3.6 7.7 S 1.3 3.7 S AVERAGE 5.4
2024-07-13 08:10 am 3.9 3.6 7.7SSW 1.3 3.7 S AVERAGE 5.5
2024-07-13 07:40 am 3.9 3.6 7.7 S 2.0 4.5 S AVERAGE 5.3
2024-07-13 07:10 am 4.3 3.0 6.7 S 3.0 4.5 S STEEP 5.1
2024-07-13 06:40 am 4.3 3.3 6.7 S 2.3 4.8 S STEEP 5.3
2024-07-13 06:10 am 4.3 3.6 7.7 S 2.0 4.8 S AVERAGE 5.3
2024-07-13 05:40 am 4.3 3.6 7.1SSE 2.3 5.0 S STEEP 5.4
2024-07-13 05:10 am 3.9 3.6 6.7 S 1.6 4.2 S STEEP 5.4
2024-07-13 04:40 am 3.9 3.6 7.7 S 1.6 4.2 SSW AVERAGE 5.6
2024-07-13 04:10 am 3.9 3.0 7.7 S 2.6 5.6 S AVERAGE 5.3
2024-07-13 03:40 am 4.3 3.3 7.1 S 2.6 5.3 S STEEP 5.2
2024-07-13 03:10 am 4.3 3.9 7.1 S 1.6 4.0 S STEEP 5.2
2024-07-13 02:40 am 4.3 3.9 7.1 S 1.6 3.8 S STEEP 5.0
2024-07-13 02:10 am 4.3 3.9 7.7 S 1.6 3.8 SSW AVERAGE 5.0
2024-07-13 01:40 am 3.9 3.6 6.7 S 1.6 3.6 SSW STEEP 4.9
2024-07-13 01:10 am 4.3 3.9 7.1 S 1.6 3.8 SSW STEEP 5.2
2024-07-13 12:40 am 3.9 3.6 7.7 S 1.6 3.8 SSW AVERAGE 5.2
2024-07-13 12:10 am 3.9 3.6 8.3 S 1.3 3.8 SSW AVERAGE 5.3
2024-07-12 11:40 pm 4.3 3.9 8.3 S 1.6 3.6 SSW AVERAGE 5.7
2024-07-12 11:10 pm 3.9 3.9 8.3 S 1.3 3.8 S AVERAGE 5.5

Plot of wave energy versus frequency (and period)